Weather History for El Dorado, AR

Change the Weather History Date:

Monday, December 10, 2012

  Actual Average Record
Temperature  
Mean Temperature 45 °F 46 °F  
Max Temperature 58 °F 57 °F 76 °F (1996)
Min Temperature 31 °F 36 °F 14 °F (1995)
Degree Days  
Heating Degree Days 20 19  
Month to date heating degree days 41 177  
Since 1 July heating degree days 577 656  
Cooling Degree Days 0 0  
Month to date cooling degree days 12 0  
Year to date cooling degree days 2288 2126  
Moisture  
Dew Point 39 °F    
Average Humidity 69    
Maximum Humidity 89    
Minimum Humidity 49    
Precipitation  
Precipitation 0.25 in 0.18 in 2.53 in (1983)
Month to date precipitation 1.55 1.86  
Year to date precipitation 39.90 49.60  
Snow  
Snow 0.00 in - - ()
Month to date snowfall 0.0  
Since 1 July snowfall 0.0  
Snow Depth 0.00 in    
Sea Level Pressure  
Sea Level Pressure 29.95 in    
Wind  
Wind Speed 8 mph (NW)    
Max Wind Speed 21 mph    
Max Gust Speed 25 mph    
Visibility 8 miles    
Events Rain , Thunderstorm    
T = Trace of Precipitation, MM = Missing Value Source: NWS Daily Summary

Daily Weather History Graph

Daily Weather History Graph

Search for Another Location

Airport:

Trip Planner

Search our weather history database for the weather conditions in past years. The results will help you decide how hot, cold, wet, or windy it might be!

Date:

Astronomy

Dec. 10, 2012 Rise Set
Actual Time 7:04 AM CST 5:04 PM CST
Civil Twilight 6:36 AM CST 5:31 PM CST
Nautical Twilight 6:06 AM CST 6:02 PM CST
Astronomical Twilight 5:35 AM CST 6:32 PM CST
Moon 3:54 AM CST (12/10) 2:49 PM CST (12/10)
Length of Visible Light 10h 54m
Length of Day
10h 00m
Waning Crescent, 10% of the Moon is Illuminated
Dec 10
Waning Crescent
Dec 13
New
Dec 19
First Quarter
Dec 28
Full
Jan 4
Last Quarter

Hourly Weather History & Observations

Time (CST) Temp. Windchill Dew Point Humidity Pressure Visibility Wind Dir Wind Speed Gust Speed Precip Events Conditions
12:04 AM 57.2 °F - 55.4 °F 94% 29.84 in 4.0 mi NW 4.6 mph - 0.00 in   Overcast
12:12 AM 57.2 °F - 55.4 °F 94% 29.84 in 4.0 mi NW 8.1 mph - 0.00 in   Overcast
12:43 AM 55.4 °F - 53.6 °F 94% 29.84 in 6.0 mi NW 10.4 mph - 0.00 in Thunderstorm Overcast
12:53 AM 55.9 °F - 53.1 °F 90% 29.83 in 6.0 mi NNW 10.4 mph 16.1 mph 0.00 in Rain , Thunderstorm Light Thunderstorms and Rain
1:08 AM 55.4 °F - 53.6 °F 94% 29.84 in 6.0 mi NNW 10.4 mph - 0.00 in Rain Light Rain
1:38 AM 53.6 °F - 53.6 °F 100% 29.88 in 4.0 mi WNW 12.7 mph 19.6 mph 0.02 in Rain , Thunderstorm Light Rain
1:47 AM 53.6 °F - 51.8 °F 94% 29.90 in 2.5 mi WSW 12.7 mph 19.6 mph 0.09 in Rain Heavy Rain
1:53 AM 53.1 °F - 51.1 °F 93% 29.84 in 1.2 mi NNW 16.1 mph 23.0 mph 0.19 in Rain Heavy Rain
2:00 AM 51.8 °F - 50.0 °F 94% 29.85 in 1.8 mi NW 13.8 mph 23.0 mph 0.04 in Rain , Thunderstorm Heavy Thunderstorms and Rain
2:04 AM 51.8 °F - 50.0 °F 94% 29.85 in 3.0 mi NW 10.4 mph - 0.04 in Rain , Thunderstorm Thunderstorms and Rain
2:18 AM 51.8 °F - 50.0 °F 94% 29.86 in 6.0 mi NW 11.5 mph - 0.04 in Rain Light Rain
2:53 AM 51.1 °F - 48.9 °F 92% 29.86 in 7.0 mi NW 8.1 mph - 0.04 in   Overcast
3:53 AM 50.0 °F - 48.0 °F 93% 29.82 in 8.0 mi NW 8.1 mph - 0.02 in Rain Light Rain
4:53 AM 50.0 °F - 46.9 °F 89% 29.87 in 10.0 mi WNW 8.1 mph - 0.00 in   Overcast
5:29 AM 48.2 °F - 46.4 °F 93% 29.88 in 10.0 mi NW 8.1 mph - 0.00 in   Overcast
5:53 AM 48.0 °F - 44.1 °F 86% 29.91 in 10.0 mi WNW 13.8 mph 20.7 mph 0.00 in   Overcast
6:53 AM 44.1 °F 37.4 °F 37.9 °F 79% 29.95 in 10.0 mi WNW 13.8 mph 19.6 mph N/A   Overcast
7:53 AM 42.1 °F 35.2 °F 33.1 °F 70% 29.99 in 10.0 mi NW 12.7 mph 20.7 mph N/A   Overcast
8:28 AM 41.0 °F 34.7 °F 32.0 °F 70% 29.98 in 10.0 mi NNW 10.4 mph - N/A   Overcast
8:53 AM 41.0 °F 35.2 °F 30.9 °F 67% 29.99 in 10.0 mi NW 9.2 mph - N/A   Mostly Cloudy
9:53 AM 43.0 °F 36.8 °F 30.0 °F 60% 30.03 in 10.0 mi NW 11.5 mph 20.7 mph N/A   Clear
10:53 AM 45.0 °F 38.9 °F 28.0 °F 52% 30.02 in 10.0 mi NW 12.7 mph - N/A   Clear
11:53 AM 46.9 °F - 28.9 °F 50% 29.99 in 10.0 mi NNW 10.4 mph - N/A   Clear
12:53 PM 46.9 °F - 28.9 °F 50% 29.98 in 10.0 mi NW 15.0 mph - N/A   Clear
1:53 PM 46.9 °F - 30.9 °F 54% 29.97 in 10.0 mi West 10.4 mph - N/A   Clear
2:53 PM 46.9 °F - 28.9 °F 50% 29.99 in 10.0 mi WNW 11.5 mph - N/A   Clear
3:53 PM 46.0 °F 41.4 °F 28.9 °F 51% 30.00 in 10.0 mi WNW 9.2 mph - N/A   Clear
4:53 PM 43.0 °F 39.5 °F 30.0 °F 60% 30.02 in 10.0 mi WNW 5.8 mph - N/A   Clear
5:53 PM 39.9 °F 37.8 °F 30.0 °F 68% 30.03 in 10.0 mi WNW 3.5 mph - N/A   Clear
6:53 PM 35.1 °F - 30.9 °F 85% 30.04 in 10.0 mi Calm Calm - N/A   Clear
7:53 PM 33.1 °F - 30.0 °F 89% 30.06 in 10.0 mi Calm Calm - N/A   Clear
8:53 PM 32.0 °F - 28.9 °F 88% 30.07 in 10.0 mi Calm Calm - N/A   Clear
9:53 PM 33.1 °F 27.7 °F 28.0 °F 82% 30.09 in 10.0 mi NNW 5.8 mph - N/A   Clear
10:53 PM 30.9 °F 25.2 °F 27.0 °F 85% 30.12 in 10.0 mi NW 5.8 mph - N/A   Clear
11:53 PM 30.9 °F - 25.0 °F 79% 30.11 in 10.0 mi Calm Calm - N/A   Clear